GW4318 Weather Reports


Display with metric or nautical units.
time (UTC)temp
F
wind
direction
speed
MPH
gust
MPH
rain 1hr
in
rain 24hr
in
rain mn
in
humidity
%
barometer
mb
20260509153526 49 337 1.0 2.0 0.01 0.06 0.06 97 1013.8
20260509152526 49 5 1.0 2.0 0.01 0.06 0.06 97 1013.9
20260509151526 49 359 1.0 2.0 0.01 0.05 0.05 97 1014.2
20260509150551 48 8 1.0 1.0 0.02 0.05 0.05 98 1014.3
20260509145527 47 318 1.0 2.0 0.02 0.05 0.05 99 1014.4
20260509144527 47 2 1.0 2.0 0.02 0.05 0.05 99 1014.6
20260509143527 46 352 0.0 1.0 0.02 0.05 0.05 99 1014.8
20260509142547 46 352 1.0 2.0 0.02 0.05 0.05 99 1014.9
20260509141547 46 2 1.0 1.0 0.02 0.04 0.04 99 1015.0
20260509140527 46 359 1.0 1.0 0.01 0.04 0.04 99 1015.1
20260509135547 45 320 1.0 1.0 0.00 0.03 0.03 99 1015.1
20260509134547 45 307 1.0 2.0 0.00 0.03 0.03 99 1015.0
20260509133528 45 92 1.0 2.0 0.01 0.03 0.03 99 1015.0
20260509132542 44 347 0.0 1.0 0.01 0.03 0.03 100 1014.8
20260509131528 44 348 0.0 1.0 0.01 0.03 0.03 100 1014.7
20260509130530 44 351 0.0 1.0 0.01 0.03 0.03 100 1014.7
20260509125528 43 8 1.0 1.0 0.01 0.02 0.02 100 1014.8
20260509124551 43 0.0 0.0 0.01 0.02 0.02 100 1014.9
20260509123530 43 8 0.0 1.0 0.02 0.02 0.02 100 1015.1
20260509122529 42 3 0.0 1.0 0.02 0.02 0.02 100 1015.0
20260509121529 42 20 1.0 2.0 0.02 0.02 0.02 99 1015.1
20260509120549 42 355 0.0 1.0 0.02 0.02 0.02 99 1015.2
20260509115528 42 103 1.0 2.0 0.02 0.02 0.02 99 1015.1
20260509114529 42 105 1.0 2.0 0.01 0.01 0.01 99 1015.1
20260509113529 41 11 1.0 2.0 0.01 0.01 0.01 99 1015.0
20260509112530 41 33 1.0 2.0 0.00 0.00 0.00 99 1015.2
20260509111517 40 50 1.0 3.0 0.00 0.00 0.00 99 1015.3
20260509110518 39 353 1.0 2.0 0.00 0.00 0.00 99 1015.1
20260509105517 39 356 0.0 1.0 0.00 0.00 0.00 99 1015.2
20260509104519 39 61 0.0 1.0 0.00 0.00 0.00 99 1015.1
20260509103521 38 86 0.0 1.0 0.00 0.00 0.00 99 1015.1
20260509102521 37 7 0.0 1.0 0.00 0.00 0.00 99 1015.0
20260509101518 36 66 0.0 0.0 0.00 0.00 0.00 99 1014.9
20260509100518 35 13 0.0 1.0 0.00 0.00 0.00 99 1014.8
20260509095520 35 19 0.0 1.0 0.00 0.00 0.00 99 1014.7
20260509094521 35 36 0.0 1.0 0.00 0.00 0.00 99 1014.4
20260509093539 35 359 0.0 1.0 0.00 0.00 0.00 99 1014.4
20260509092519 35 144 0.0 2.0 0.00 0.00 0.00 99 1014.3
20260509091520 35 9 0.0 1.0 0.00 0.00 0.00 99 1014.3
20260509090519 35 56 0.0 1.0 0.00 0.00 0.00 99 1014.2
20260509085518 35 20 0.0 1.0 0.00 0.00 0.00 99 1014.2
20260509084519 34 17 0.0 1.0 0.00 0.00 0.00 99 1014.2
20260509083519 35 310 0.0 1.0 0.00 0.00 0.00 99 1014.0
20260509082525 35 52 0.0 1.0 0.00 0.00 0.00 99 1014.2
20260509081518 36 116 0.0 1.0 0.00 0.00 0.00 99 1014.1
20260509080517 36 70 0.0 0.0 0.00 0.00 0.00 100 1014.1
20260509075520 36 39 0.0 2.0 0.00 0.00 0.00 99 1014.2
20260509074522 36 48 0.0 1.0 0.00 0.00 0.00 99 1014.2
20260509073517 36 118 0.0 1.0 0.00 0.00 0.00 99 1014.3
20260509072517 36 0.0 0.0 0.00 0.00 0.00 99 1014.2
20260509071518 36 33 0.0 2.0 0.00 0.00 0.00 100 1014.3
20260509070517 36 244 0.0 1.0 0.00 0.00 0.00 100 1014.1
20260509065518 36 21 0.0 1.0 0.00 0.00 0.00 99 1014.0
20260509064518 37 37 1.0 2.0 0.00 0.00 0.00 100 1013.9
20260509063518 37 9 0.0 1.0 0.00 0.00 0.00 99 1014.0
20260509062518 37 104 0.0 1.0 0.00 0.00 0.00 99 1013.9
20260509061520 37 41 0.0 1.0 0.00 0.00 0.00 99 1014.0
20260509060520 37 0.0 0.0 0.00 0.00 0.00 99 1013.8
20260509055518 37 57 0.0 1.0 0.00 0.00 0.00 99 1013.9
20260509054520 37 0.0 0.0 0.00 0.00 0.00 99 1014.0
20260509053518 37 255 0.0 1.0 0.00 0.00 0.00 98 1014.1
20260509052518 37 136 0.0 1.0 0.00 0.00 0.00 98 1014.0
20260509051519 37 51 0.0 1.0 0.00 0.00 0.00 98 1014.0
20260509050519 37 139 0.0 1.0 0.00 0.00 0.00 97 1013.9
20260509045539 38 60 0.0 1.0 0.00 0.00 0.00 97 1013.9
20260509044516 38 279 0.0 1.0 0.00 0.00 0.00 96 1013.9
20260509043516 38 357 0.0 0.0 0.00 0.00 0.00 95 1014.0
20260509042541 38 22 0.0 1.0 0.00 0.00 0.00 94 1014.0
20260509041520 39 352 0.0 1.0 0.00 0.00 0.00 94 1013.8
20260509040519 39 64 0.0 1.0 0.00 0.00 0.00 93 1013.7
20260509035517 39 44 0.0 0.0 0.00 0.00 0.00 92 1013.6
20260509034518 40 29 0.0 1.0 0.00 0.00 0.00 90 1013.6
20260509033520 40 349 0.0 1.0 0.00 0.00 0.00 89 1013.6
20260509032605 40 59 0.0 1.0 0.00 0.00 0.00 88 1013.6
20260509031519 40 37 0.0 2.0 0.00 0.00 0.00 87 1013.5
20260509030517 41 355 0.0 2.0 0.00 0.00 0.00 84 1013.5
20260509025518 41 35 0.0 3.0 0.00 0.00 0.00 83 1013.5
20260509024517 42 346 0.0 1.0 0.00 0.00 0.00 83 1013.4
20260509023558 42 47 0.0 1.0 0.00 0.00 0.00 82 1013.5
20260509022518 43 43 0.0 1.0 0.00 0.00 0.00 79 1013.6
20260509021518 44 1 0.0 1.0 0.00 0.00 0.00 76 1013.4
20260509020520 44 38 0.0 1.0 0.00 0.00 0.00 73 1013.2
20260509015520 45 143 0.0 1.0 0.00 0.00 0.00 71 1013.0
20260509014518 46 45 0.0 1.0 0.00 0.00 0.00 71 1012.9
20260509013539 47 69 0.0 1.0 0.00 0.00 0.00 69 1012.8
20260509012538 47 68 0.0 1.0 0.00 0.00 0.00 68 1012.6
20260509011517 48 50 0.0 1.0 0.00 0.00 0.00 66 1012.3
20260509010522 49 28 0.0 1.0 0.00 0.00 0.00 68 1012.2
20260509005522 49 51 0.0 1.0 0.00 0.00 0.00 68 1012.0
20260509004518 50 41 0.0 1.0 0.00 0.00 0.00 66 1011.7
20260509003538 51 44 0.0 2.0 0.00 0.00 0.00 63 1011.4
20260509002518 52 317 0.0 1.0 0.00 0.00 0.00 62 1011.2
20260509001518 53 25 1.0 2.0 0.00 0.00 0.00 58 1010.9
20260509000518 54 274 0.0 2.0 0.00 0.00 0.00 55 1010.7
20260508235538 54 278 2.0 8.0 0.00 0.00 0.00 53 1010.5
20260508234540 54 277 2.0 5.0 0.00 0.00 0.00 52 1010.4
20260508233520 54 288 1.0 3.0 0.00 0.00 0.00 52 1010.3
20260508232600 55 0.0 0.0 0.00 0.00 0.00 51 1010.2
20260508231518 56 266 1.0 4.0 0.00 0.00 0.00 50 1010.0
20260508230521 56 276 2.0 7.0 0.00 0.00 0.00 48 1009.9
20260508225520 56 276 2.0 5.0 0.00 0.00 0.00 48 1009.8
20260508224559 56 295 2.0 5.0 0.00 0.00 0.00 47 1009.7
20260508223538 57 258 2.0 5.0 0.00 0.00 0.00 46 1009.7
20260508222600 57 283 2.0 5.0 0.00 0.00 0.00 46 1009.6
20260508221541 57 276 2.0 5.0 0.00 0.00 0.00 43 1009.6
20260508220519 58 255 3.0 6.0 0.00 0.00 0.00 41 1009.6
20260508215518 59 270 3.0 7.0 0.00 0.00 0.00 41 1009.4
20260508214518 59 276 4.0 11.0 0.00 0.00 0.00 41 1009.4
20260508213525 59 269 3.0 7.0 0.00 0.00 0.00 40 1009.4
20260508212521 59 297 4.0 9.0 0.00 0.00 0.00 41 1009.3
20260508211517 59 270 4.0 11.0 0.00 0.00 0.00 42 1009.3
20260508210519 59 279 5.0 12.0 0.00 0.00 0.00 42 1009.3
20260508205517 58 268 4.0 8.0 0.00 0.00 0.00 43 1009.2
20260508204521 58 281 2.0 6.0 0.00 0.00 0.00 45 1009.2
20260508203558 58 269 4.0 8.0 0.00 0.00 0.00 45 1009.1
20260508202518 58 264 4.0 10.0 0.00 0.00 0.00 43 1009.2
20260508201518 59 281 4.0 9.0 0.00 0.00 0.00 45 1009.1
20260508200518 59 288 4.0 10.0 0.00 0.00 0.00 46 1009.1
20260508195520 59 273 4.0 9.0 0.00 0.00 0.00 46 1009.1
20260508194519 59 279 4.0 10.0 0.00 0.00 0.00 45 1009.0
20260508193518 59 263 4.0 9.0 0.00 0.00 0.00 44 1008.9
20260508192539 60 276 5.0 9.0 0.00 0.00 0.00 43 1008.8
20260508191520 59 312 3.0 8.0 0.00 0.00 0.00 43 1008.8
20260508190521 59 308 4.0 8.0 0.00 0.00 0.00 43 1008.9
20260508185516 59 276 3.0 7.0 0.00 0.00 0.00 43 1008.8
20260508184521 58 294 3.0 7.0 0.00 0.00 0.00 42 1008.9
20260508183521 58 283 4.0 11.0 0.00 0.00 0.00 42 1009.0
20260508182519 59 267 4.0 11.0 0.00 0.00 0.00 42 1008.9
20260508181557 59 286 4.0 7.0 0.00 0.00 0.00 42 1008.8
20260508180537 58 264 4.0 9.0 0.00 0.00 0.00 44 1008.8
20260508175520 58 299 4.0 7.0 0.00 0.00 0.00 44 1009.0
20260508174517 58 259 4.0 11.0 0.00 0.00 0.00 44 1009.0
20260508173517 57 286 3.0 6.0 0.00 0.00 0.00 45 1009.1
20260508172517 58 287 2.0 6.0 0.00 0.00 0.00 45 1009.0
20260508171521 58 264 3.0 8.0 0.00 0.00 0.00 46 1009.1
20260508170519 58 287 4.0 9.0 0.00 0.00 0.00 45 1009.1
20260508165519 58 261 4.0 8.0 0.00 0.00 0.00 45 1009.0
20260508164517 58 276 4.0 8.0 0.00 0.00 0.00 45 1009.1
20260508163519 59 296 4.0 9.0 0.00 0.00 0.00 44 1009.0
20260508162518 59 259 4.0 11.0 0.00 0.00 0.00 44 1008.9
20260508161518 59 309 4.0 8.0 0.00 0.00 0.00 44 1008.9
20260508160519 59 271 2.0 5.0 0.00 0.00 0.00 45 1009.1
20260508155538 58 247 3.0 9.0 0.00 0.00 0.00 45 1009.1
20260508154519 57 267 4.0 8.0 0.00 0.00 0.00 45 1009.4